User: anonymous   Login
Location: Unspecified
(0.0000°N, 0.0000°E)
Time: 03:32:46
(UTC+00:00)
Language:

USA 169 - Orbit

View from above orbital plane
View from above orbital plane
View from above satellite
View from above satellite

Ground track
Ground track

The orbit data is extracted from the following two-line orbital elements,

1 27711U 03012A   17169.73658061 0.00000000  00000-0  00000-0 0    07
2 27711   7.4145  52.2418 0003004   6.7740 353.2103  1.00270000    01
Epoch (UTC): 18 June 2017 17:40:40
Eccentricity: 0.0003004
inclination: 7.4145°
perigee height: 35774 km
apogee height: 35799 km
right ascension of ascending node: 52.2418°
argument of perigee: 6.7740°
revolutions per day: 1.00270000
mean anomaly at epoch: 353.2103°
orbit number at epoch: 0

The dashed part of the orbit path shows where the satellite is in the earth's shadow,  

DLR